Theta_e
305 307 309 311 312 312 312 312 312 311 313 314 313 318 326 327 326 324 317 321 323 321 327 331 327 323 323 322 321 322 323 320 316 318 319 318 319 321 321 321 322 322 322 322 322 324 323 323 322 322 325 324 321 323 324 319 323 327 324 324 327 331 331 324 324 335 336 331 331 331 328 324 320 321 323 324 327 332 334 340 341 335 334 339 344 346 350
304 306 308 311 312 312 313 313 312 311 313 314 314 321 324 321 325 327 320 322 324 322 327 332 330 327 325 322 322 321 320 319 318 318 318 319 320 320 320 320 321 321 321 322 322 322 322 322 323 322 321 322 322 322 324 322 322 324 325 328 327 325 332 333 331 335 337 335 337 336 333 330 325 323 323 322 324 328 333 338 340 334 332 335 337 338 346
303 305 307 310 312 312 313 313 312 311 312 315 315 319 324 325 328 330 325 323 323 324 328 328 327 327 323 320 321 321 319 319 319 318 317 318 318 319 320 319 320 322 322 322 322 321 322 322 323 322 321 322 321 320 323 322 321 325 333 340 333 324 334 345 335 327 328 329 329 328 330 331 328 327 329 328 323 319 325 331 330 328 330 332 332 336 349
304 303 306 310 312 313 313 313 313 311 313 316 315 317 325 329 330 331 330 328 324 325 326 320 320 322 322 324 324 321 319 319 318 318 316 316 317 318 320 319 320 322 321 322 323 321 322 324 325 324 324 323 320 321 321 320 329 340 340 339 339 333 337 348 343 330 328 333 335 335 333 326 324 331 338 341 336 327 330 331 328 332 333 333 339 344 350
307 303 305 309 311 312 313 313 313 311 314 318 319 321 327 328 330 332 333 335 333 332 330 323 322 324 324 326 326 321 320 318 316 317 316 316 318 321 322 320 318 322 324 323 325 327 327 327 328 326 327 326 322 322 321 320 335 347 336 333 342 337 328 333 337 330 328 334 335 333 330 327 329 337 342 346 346 344 342 332 330 338 334 331 347 356 351
312 305 303 307 311 312 312 313 313 311 314 321 325 331 333 331 331 332 332 337 340 338 337 333 329 326 324 325 324 320 320 320 318 318 318 316 317 321 324 323 319 322 326 326 329 335 334 332 334 333 330 329 325 324 323 323 330 333 327 331 342 336 325 324 326 326 326 328 330 331 333 336 340 342 342 345 346 347 348 343 344 348 339 337 353 359 353
316 307 303 306 311 312 312 313 313 311 315 322 326 332 337 334 334 333 332 336 339 336 336 334 329 327 328 330 326 320 320 320 318 317 319 319 317 319 322 323 320 321 331 334 334 335 331 326 332 336 331 329 328 325 326 328 327 325 322 328 334 333 331 329 325 326 329 330 331 335 338 338 340 342 344 346 346 346 347 349 352 353 350 350 356 355 354
318 310 303 305 310 312 312 313 313 310 313 321 324 327 331 333 334 333 333 337 340 336 335 333 328 328 330 328 325 322 319 320 319 318 320 319 318 318 318 320 321 320 329 333 328 331 335 329 330 333 327 326 330 328 326 326 326 325 323 326 329 326 327 330 330 329 329 329 330 335 339 339 339 341 345 347 347 349 349 349 351 353 353 354 354 354 356
320 313 305 304 309 312 312 312 313 311 311 317 322 324 323 323 326 329 333 343 347 341 336 332 329 332 332 325 324 324 319 319 320 319 322 320 317 318 316 318 325 324 325 326 321 324 333 327 323 326 322 322 326 327 326 326 325 327 325 326 329 325 325 332 335 330 324 324 327 331 334 335 335 336 341 346 347 348 349 349 350 351 352 353 354 356 357
321 315 306 305 309 311 312 311 312 312 311 312 317 321 320 320 324 326 332 345 349 342 337 333 329 333 334 326 323 322 318 320 323 323 326 323 317 318 316 319 329 327 322 323 319 317 321 318 317 320 318 318 321 321 324 324 323 326 327 325 329 330 327 330 333 328 322 323 326 327 330 335 337 337 338 342 347 347 347 349 350 350 353 355 355 355 355
321 316 308 305 308 311 312 311 311 312 312 311 313 316 316 318 322 325 333 347 350 341 337 334 330 330 330 326 323 322 318 321 329 329 326 322 318 319 318 324 334 331 322 320 319 318 318 318 318 318 315 316 320 319 321 323 324 327 328 327 331 335 333 331 329 324 322 326 327 328 333 336 337 340 342 342 343 344 345 348 349 349 351 353 353 353 350
321 317 309 305 308 311 311 311 311 311 311 311 312 313 314 316 319 324 333 345 349 343 337 336 333 331 329 325 323 324 320 319 326 327 322 320 320 318 317 325 332 329 321 318 320 320 319 320 324 326 321 317 318 319 320 323 326 326 326 328 332 335 333 332 329 324 324 332 334 333 336 336 335 343 349 344 338 339 342 343 345 348 349 350 350 350 349
320 318 310 306 309 311 310 311 311 311 311 311 311 312 313 315 319 325 331 338 343 342 339 339 335 330 329 325 324 325 321 320 326 326 321 322 321 318 318 321 322 320 318 321 325 322 322 326 331 333 333 333 332 329 327 325 324 324 324 328 331 332 330 333 334 328 326 333 337 337 337 335 335 342 343 338 336 339 343 344 342 344 348 349 349 349 348
319 317 309 307 309 310 310 310 311 311 311 311 312 312 312 314 318 324 329 334 338 337 336 341 340 333 329 327 326 324 321 323 326 324 320 321 319 318 319 317 316 317 317 324 332 328 324 328 329 329 336 342 340 336 333 328 326 324 322 325 333 337 334 332 331 327 327 330 332 336 339 336 338 341 336 332 335 337 343 346 343 341 346 349 349 347 346
317 315 309 307 310 311 310 310 310 311 311 311 312 312 311 314 317 320 325 330 335 336 336 341 341 335 331 329 325 324 328 329 328 326 328 327 322 319 318 316 315 316 316 322 329 328 326 326 323 323 327 329 327 330 333 329 326 326 323 324 331 334 334 335 331 328 334 336 332 335 342 342 343 342 334 331 333 332 339 347 344 340 344 348 348 348 346
316 314 309 308 310 311 310 310 311 311 311 311 312 312 312 315 317 320 323 327 334 340 339 335 333 333 333 330 324 325 331 333 331 331 334 334 327 321 318 316 313 315 320 326 330 329 328 327 322 322 328 330 326 325 329 330 330 331 329 328 330 333 339 345 339 330 333 339 337 338 343 344 343 339 334 333 334 332 337 348 347 341 343 347 348 348 347
315 313 308 308 310 311 311 310 311 311 311 311 312 312 312 315 317 319 323 328 332 336 334 329 329 333 333 330 328 330 331 332 334 334 332 331 329 324 319 318 318 317 320 326 330 327 324 325 325 324 327 332 328 324 326 331 331 331 332 334 338 344 347 344 335 330 332 340 342 341 341 342 340 336 336 335 334 333 335 343 345 341 342 346 348 348 349
314 312 308 308 310 310 311 311 310 311 311 311 312 312 312 314 316 318 322 326 331 333 331 326 327 332 332 329 330 331 326 328 337 339 335 334 333 328 323 322 324 322 320 324 330 329 323 324 329 329 327 329 329 326 326 328 326 326 332 336 339 343 344 338 332 331 337 343 343 340 341 343 338 335 336 335 336 342 343 342 345 344 343 345 346 345 346
313 311 308 308 309 310 311 311 310 311 311 311 311 312 311 313 317 319 321 325 329 331 330 325 324 327 326 326 330 330 324 329 340 340 333 330 332 333 330 328 328 330 331 330 329 327 325 327 334 337 332 331 333 330 327 327 327 327 330 334 335 335 337 339 337 334 338 344 345 342 342 341 336 335 338 337 339 346 345 342 345 346 344 345 345 343 343
312 310 308 308 309 310 311 310 310 311 311 311 311 311 311 314 317 318 320 323 326 328 327 324 324 325 322 322 327 329 327 331 340 343 337 332 336 342 336 332 336 339 340 338 332 328 328 329 334 335 329 328 333 333 329 327 326 324 325 329 333 332 332 335 336 336 340 345 347 347 346 341 335 338 344 344 342 345 346 342 341 342 344 346 345 343 342
311 309 308 308 308 310 311 310 310 311 311 311 311 311 312 315 316 314 315 319 323 328 330 326 322 323 321 320 322 324 326 327 330 338 339 333 336 341 335 335 342 339 335 337 335 331 330 330 332 333 328 329 334 333 332 331 327 324 329 334 335 333 334 338 338 338 343 345 344 343 342 337 335 341 345 343 341 344 348 346 342 341 343 343 343 343 342
310 309 309 308 308 310 310 310 310 310 310 311 311 310 312 314 314 313 315 318 321 326 329 324 321 321 320 320 323 324 325 325 322 327 332 331 334 339 338 341 343 334 332 342 342 337 337 335 332 332 330 332 334 331 334 339 334 329 333 338 336 333 336 342 340 336 340 342 339 336 335 332 333 338 339 338 338 341 343 344 342 343 342 341 343 344 342
310 309 308 307 308 309 310 310 310 310 310 310 310 311 311 312 312 314 317 320 322 325 326 323 323 327 324 322 325 324 322 323 320 319 324 328 333 337 338 337 335 332 339 351 351 344 339 334 334 337 334 333 337 336 335 337 335 335 336 334 332 332 335 339 337 333 336 337 333 333 335 333 333 334 334 334 336 338 342 344 344 343 342 342 344 344 343
309 308 308 308 308 309 310 311 310 310 311 310 310 311 311 311 313 315 318 323 327 331 333 330 329 333 331 326 324 322 321 322 320 318 320 322 328 335 336 332 334 338 340 342 343 341 336 332 337 341 336 333 338 340 337 331 330 335 337 331 327 330 335 338 337 336 338 337 333 333 335 334 334 334 332 332 333 334 338 341 341 341 341 342 343 344 344
308 308 307 308 309 309 310 310 311 311 311 310 311 311 311 312 314 314 317 322 325 328 336 338 333 330 329 327 324 322 321 320 319 320 319 318 323 331 330 325 328 333 330 331 339 341 335 332 336 339 337 335 335 336 337 334 332 336 337 334 333 333 335 337 338 339 341 337 333 334 335 335 336 337 335 334 333 331 332 335 337 341 342 339 338 339 341
307 307 307 308 309 309 309 310 310 310 311 311 311 311 311 312 313 313 314 318 322 324 330 335 335 330 327 328 326 322 321 320 319 319 318 318 322 326 326 323 325 329 331 337 344 341 336 335 335 336 339 338 337 338 338 334 335 339 336 334 340 341 338 338 338 337 336 334 333 336 337 335 336 337 336 336 335 332 332 332 333 338 342 341 338 336 337
306 306 307 308 308 309 309 310 310 310 311 311 311 311 311 312 313 313 313 316 323 330 332 333 334 331 328 327 325 321 321 319 319 319 318 319 322 322 323 329 334 336 337 339 340 340 340 336 332 336 340 336 333 338 338 333 338 344 339 335 341 342 336 334 334 334 337 337 335 335 338 337 336 336 336 336 335 335 335 333 332 335 338 341 341 338 335
306 307 308 308 308 309 309 310 310 310 310 311 311 311 312 312 313 314 313 314 320 328 330 329 329 330 330 330 325 321 322 320 319 320 318 318 321 321 323 331 338 337 333 332 334 338 339 332 329 339 346 340 332 333 338 341 345 346 340 338 342 341 335 333 334 335 338 338 334 334 338 339 336 335 336 335 334 336 336 335 334 333 332 333 338 340 339
307 308 308 308 308 308 309 309 310 310 310 311 311 312 314 315 315 314 313 313 316 321 324 326 330 333 334 331 325 322 322 319 318 320 319 319 322 320 320 327 335 335 334 335 337 338 337 334 336 341 341 338 334 332 339 346 346 340 336 337 340 340 337 335 336 336 337 336 334 334 336 336 335 336 337 334 330 331 335 335 334 332 328 327 330 333 335
308 308 308 308 308 308 309 309 309 310 310 311 311 314 320 323 319 315 315 315 317 320 324 329 336 337 333 329 325 324 324 321 319 321 321 320 321 320 320 326 334 341 345 345 340 337 336 335 338 338 333 333 335 335 339 344 342 336 335 336 338 340 340 337 335 337 337 335 333 332 333 334 334 334 334 330 326 327 332 334 331 329 327 325 326 326 327
308 308 308 308 308 309 309 309 309 309 310 310 312 317 326 328 321 317 317 317 318 321 326 331 335 334 331 329 326 323 324 322 318 319 320 321 321 320 320 325 332 340 347 347 341 338 336 335 336 334 330 334 340 339 341 345 341 334 335 338 340 343 343 339 336 336 336 334 332 331 331 332 332 332 333 332 327 325 328 330 329 328 326 325 325 324 324
308 309 308 308 309 309 309 309 309 309 310 311 312 315 321 322 319 318 318 318 318 322 328 334 336 333 332 333 330 324 322 321 322 326 327 325 325 325 324 327 334 338 341 343 342 338 335 337 340 336 330 334 339 337 338 345 343 336 335 339 340 340 340 339 337 335 333 331 330 331 332 331 331 332 333 330 326 324 324 326 327 327 324 323 323 324 323
309 309 309 308 309 309 309 309 309 309 310 310 310 312 315 317 318 319 318 317 316 319 326 332 334 332 331 334 332 327 324 325 331 337 335 328 327 329 328 332 340 340 335 336 339 337 335 338 341 336 333 337 338 334 335 343 344 339 337 338 339 339 339 337 335 334 333 331 331 332 333 332 329 326 324 322 321 321 320 321 323 323 320 319 321 321 321
309 309 309 309 309 309 309 310 309 310 310 310 310 313 313 315 317 318 316 315 317 321 326 330 332 332 332 334 334 333 329 327 331 339 336 328 327 332 333 335 339 338 332 332 336 339 340 341 338 334 334 338 337 334 335 338 338 336 336 337 338 339 339 336 335 337 339 339 337 332 328 325 324 322 321 322 321 318 317 317 319 321 322 323 323 321 320
309 309 309 309 309 309 310 310 309 310 311 311 312 314 314 315 316 316 315 317 322 328 331 329 328 330 333 334 336 335 329 326 331 339 339 331 327 333 340 337 332 331 332 333 334 335 337 337 335 334 334 333 333 335 336 335 334 334 335 336 336 336 336 335 336 337 338 337 336 330 324 322 323 324 325 327 324 319 317 316 316 317 322 326 325 320 318
309 309 309 310 310 310 310 310 310 311 311 312 314 316 317 317 316 315 315 317 322 329 333 330 328 331 333 334 336 334 328 329 336 338 338 335 331 333 340 340 333 332 335 334 331 332 335 336 335 332 329 330 336 342 340 335 334 334 333 334 335 335 335 335 334 334 333 331 331 328 324 323 324 325 326 328 324 319 318 320 319 320 324 327 324 318 314
309 310 310 310 310 311 312 312 312 312 313 314 316 317 318 319 318 316 317 318 319 324 328 328 330 335 335 335 337 332 324 329 337 334 333 337 335 332 336 338 335 335 337 336 335 337 339 339 336 333 333 338 346 348 340 333 332 334 333 332 333 334 336 335 332 331 332 330 329 329 326 324 326 326 325 326 325 322 321 321 320 320 323 325 323 319 315
310 310 310 311 312 313 314 315 315 315 315 316 317 319 320 321 321 321 323 324 325 326 326 325 329 334 333 332 335 330 323 328 337 335 332 335 335 331 333 336 334 334 335 337 336 335 336 336 335 335 340 347 348 343 336 331 331 332 331 332 333 334 333 331 329 330 332 331 330 331 328 325 326 326 324 325 326 323 319 317 316 316 317 319 318 316 315
310 310 311 312 313 314 316 318 318 317 316 315 317 320 322 321 322 324 325 325 328 329 328 327 331 333 329 329 334 333 327 328 333 336 336 337 336 335 335 332 330 331 333 333 331 330 334 337 334 332 339 347 347 341 335 331 330 332 331 331 331 329 328 327 327 328 330 330 330 329 325 322 322 325 326 326 325 321 317 315 315 316 316 316 315 315 316
310 311 312 313 314 314 317 318 318 317 317 317 319 321 320 319 323 326 323 321 324 326 327 328 330 329 327 328 333 334 331 330 334 340 341 336 334 337 335 330 329 331 333 332 330 330 333 336 333 330 337 347 348 342 336 332 332 334 332 329 326 324 324 324 323 322 323 324 323 321 319 316 316 320 323 324 323 323 321 318 316 316 316 316 316 316 316
311 312 313 315 315 315 317 318 317 318 320 320 322 323 321 320 321 322 319 319 320 321 321 325 325 324 323 326 331 335 335 333 337 345 343 335 332 335 335 331 330 333 333 333 332 330 330 332 331 332 339 347 345 340 336 333 333 334 331 327 324 323 322 322 321 321 322 324 322 319 317 316 315 316 317 317 317 319 320 318 316 316 317 317 316 316 315
312 313 314 314 315 316 318 319 320 320 321 322 323 325 325 323 320 319 319 320 319 317 318 321 324 326 325 324 329 337 336 330 334 343 343 335 334 336 335 331 328 329 332 333 331 329 329 330 330 335 345 349 342 337 336 335 333 334 332 327 324 323 322 322 322 323 323 323 321 318 317 317 316 316 317 317 316 316 316 316 316 316 316 316 315 315 315
312 313 313 314 316 318 320 322 322 322 323 323 322 323 325 324 320 319 320 320 317 317 318 319 321 325 324 320 325 332 329 326 333 342 340 334 332 333 332 331 330 332 334 332 327 327 331 332 331 340 351 348 337 333 334 334 332 333 331 327 323 323 323 322 322 323 323 321 319 318 317 317 317 317 317 317 317 316 316 316 316 316 316 316 315 315 315
312 313 314 316 319 321 322 324 323 322 323 324 323 322 324 326 322 319 321 322 320 319 320 320 321 323 323 324 330 332 327 325 332 337 334 333 333 331 330 333 335 335 332 328 327 331 334 334 335 343 347 340 332 331 333 332 332 333 332 327 323 322 322 322 322 322 321 320 318 317 317 317 317 317 317 317 317 317 316 316 316 316 316 315 315 314 314
314 315 316 319 322 321 320 322 323 321 322 324 324 323 324 326 325 322 321 323 324 324 322 322 324 324 324 327 333 335 332 331 332 331 330 331 332 331 333 336 335 331 328 327 330 330 329 331 341 347 342 334 331 331 331 331 331 331 331 329 327 324 323 324 324 322 320 319 318 317 317 317 317 317 317 317 317 317 316 316 316 316 315 315 314 314 313
315 317 318 320 323 321 319 320 322 322 322 323 324 324 325 325 326 326 322 321 325 327 325 321 322 324 326 328 331 334 335 334 330 328 330 332 332 332 333 331 329 327 327 328 329 327 329 338 350 348 338 332 331 330 330 331 330 329 328 330 330 327 323 321 321 320 319 319 318 318 317 317 317 317 317 317 316 316 316 316 315 315 315 314 314 313 312
316 318 317 320 322 321 319 321 323 323 323 324 326 327 325 322 323 324 323 320 323 326 325 322 321 324 327 330 333 334 334 332 329 329 331 332 332 331 329 327 328 328 327 327 329 332 338 348 351 342 334 332 332 330 330 331 330 329 328 328 329 328 324 320 320 320 319 319 318 318 317 317 317 317 317 316 316 316 315 315 315 315 314 313 313 312 312
317 318 318 321 323 321 319 321 323 323 323 324 325 324 323 321 320 321 320 320 324 327 325 323 323 324 325 330 335 335 331 330 331 331 330 330 331 330 328 327 328 327 326 330 338 345 350 353 348 338 333 332 331 331 331 331 329 329 329 328 329 328 325 321 320 321 320 318 318 318 317 317 317 317 316 316 315 315 315 315 314 314 313 312 312 311 311
316 317 319 321 323 321 321 322 322 322 323 323 320 320 321 322 321 320 320 323 332 337 334 328 327 329 328 327 331 332 330 329 330 328 326 327 329 329 327 326 327 329 331 334 340 349 354 350 340 333 332 332 330 330 330 329 328 328 327 326 325 325 323 321 321 320 319 319 318 318 318 317 317 316 316 315 315 314 314 314 313 313 312 312 311 311 311
316 317 319 321 324 325 324 321 320 322 324 323 321 320 321 320 320 323 327 330 338 345 342 334 333 336 334 330 329 331 331 331 329 327 326 327 328 327 327 326 328 335 341 340 338 345 351 343 333 331 332 331 329 330 330 329 329 328 325 322 322 323 323 322 321 320 319 319 318 318 317 317 316 315 315 314 314 314 313 313 312 312 311 311 311 311 311
316 318 319 320 323 324 323 321 322 324 324 323 323 325 325 326 327 329 332 334 341 345 342 335 333 336 336 333 331 330 331 331 331 330 330 330 328 326 329 332 335 342 348 345 339 340 340 335 331 331 332 330 330 331 330 327 326 326 324 322 323 324 323 323 321 320 319 319 318 317 317 316 315 315 315 314 313 313 312 312 312 311 311 311 312 312 312
317 319 320 320 321 322 321 321 324 324 323 324 328 329 330 334 334 331 330 336 344 344 338 334 334 334 334 333 332 329 328 331 333 331 329 330 329 329 334 342 347 347 346 343 338 335 333 331 330 331 331 331 331 331 327 324 324 325 324 324 324 323 322 322 321 319 318 318 317 316 315 315 315 314 314 313 312 311 311 311 311 311 311 312 312 311 311
Wind_Speed
31 33 33 34 35 34 32 32 33 37 37 30 25 16 3 2 2 10 12 7 5 5 1 3 1 2 6 6 6 7 5 3 1 3 4 3 3 3 3 2 2 1 1 1 2 2 1 2 2 4 5 5 8 6 5 4 1 4 1 3 3 1 2 3 4 5 5 7 7 4 3 1 1 2 3 4 4 4 5 5 3 4 3 2 3 1 3
31 32 33 33 34 34 32 31 31 34 35 28 19 8 1 1 4 7 11 10 3 3 2 3 3 4 5 6 6 4 3 1 1 3 2 2 2 3 3 2 0 1 1 1 1 2 2 1 1 1 2 2 5 3 4 4 2 2 1 2 2 2 1 3 3 5 6 7 8 7 5 4 1 4 5 3 6 5 3 1 3 3 4 5 4 1 4
31 32 32 32 33 34 32 30 30 31 32 25 13 2 2 3 2 4 8 9 3 4 4 3 4 5 5 7 6 4 3 2 1 3 1 1 1 1 2 2 1 1 2 3 3 4 3 1 2 3 1 2 2 2 5 4 1 0 3 4 3 1 1 3 3 3 2 2 3 3 4 4 3 4 5 4 5 5 4 2 4 2 3 4 4 3 3
31 32 32 31 32 33 33 30 29 30 30 23 9 1 1 2 1 2 5 5 2 1 2 1 1 3 4 6 5 2 2 3 1 2 1 1 1 1 1 2 3 3 4 5 5 5 4 3 3 4 4 4 3 4 7 5 4 5 3 5 5 1 1 2 5 5 4 4 6 6 4 3 5 6 9 9 5 2 6 4 4 4 4 3 3 3 5
31 31 32 31 31 32 32 30 28 28 27 20 7 1 0 1 1 2 3 3 4 4 4 4 4 6 6 4 3 2 3 3 1 2 0 2 3 2 1 1 2 1 2 4 3 5 5 5 4 3 4 3 4 6 7 6 7 8 6 5 5 2 3 3 2 2 1 4 5 5 3 3 5 7 10 11 9 7 8 4 5 5 6 2 4 4 6
30 31 31 30 30 31 32 30 28 27 24 16 7 1 1 1 1 1 2 1 2 3 5 5 7 10 8 4 2 3 5 3 1 1 1 3 4 2 2 4 2 3 4 3 2 5 5 5 5 3 3 4 4 7 6 5 7 8 5 4 4 4 3 6 5 7 9 9 10 10 7 6 8 10 13 14 13 11 9 4 3 6 6 3 6 12 9
30 29 30 30 29 29 31 29 27 27 20 11 6 3 2 2 2 3 2 1 2 3 6 8 8 9 6 3 0 0 3 5 2 1 2 2 3 3 1 4 3 5 5 4 2 2 2 2 4 2 3 4 2 4 5 5 6 6 4 4 2 4 2 7 6 7 9 11 12 11 9 10 12 12 12 15 16 14 12 10 11 13 11 8 12 16 11
29 28 28 29 28 27 29 28 26 26 19 8 6 6 4 2 2 3 3 3 4 4 5 6 6 6 3 2 2 1 1 3 3 2 3 2 2 3 2 3 3 6 6 6 3 1 5 2 3 1 3 4 1 1 2 4 4 5 4 3 3 3 2 5 6 6 4 6 7 11 13 14 15 13 12 14 17 16 14 12 10 11 11 11 13 14 9
27 27 27 27 26 25 26 26 25 25 20 11 5 6 6 5 5 4 2 3 4 3 3 4 4 4 3 1 3 1 1 0 1 1 1 4 4 3 2 3 4 6 8 8 5 2 2 1 4 2 2 3 2 2 2 2 3 4 3 2 3 3 2 3 6 4 3 5 4 5 11 14 15 14 15 13 15 14 11 10 8 6 7 10 12 10 4
25 25 25 25 25 23 23 24 24 24 22 15 6 5 10 9 6 4 1 3 4 3 3 4 3 2 4 4 3 3 3 1 3 2 3 2 5 2 3 4 4 5 8 6 4 3 2 4 5 3 3 4 3 3 4 1 1 1 0 1 2 2 2 3 5 2 3 6 4 0 6 10 9 7 10 9 10 12 11 12 13 10 6 8 7 4 2
24 23 23 23 23 21 21 21 22 22 21 17 8 5 9 9 5 4 2 1 4 3 2 4 3 2 6 9 8 7 4 4 5 4 0 3 4 4 5 6 6 3 3 4 5 1 3 5 4 2 3 5 5 5 5 4 2 1 2 2 1 3 4 4 3 1 2 4 5 5 6 5 2 4 7 8 9 16 15 12 14 13 10 8 7 6 5
23 22 21 21 20 19 19 19 19 19 18 16 10 5 6 9 5 3 2 1 4 2 2 4 4 4 8 9 9 9 3 5 6 5 5 2 3 5 6 7 6 1 4 4 4 6 6 5 5 6 6 6 6 5 6 7 7 5 3 4 2 4 5 2 1 1 1 1 5 6 5 2 4 3 2 5 4 14 16 13 14 14 11 10 9 9 9
21 20 19 18 17 17 17 17 18 17 15 16 13 8 7 8 4 2 1 0 4 2 2 6 7 6 8 8 10 12 7 4 7 7 7 4 4 5 4 4 4 1 1 4 8 7 4 5 5 5 6 6 6 6 8 7 8 8 6 2 4 4 3 2 1 0 0 2 4 3 3 3 4 5 3 4 3 6 10 11 13 12 9 7 8 8 8
18 19 16 15 15 15 15 16 17 16 14 14 15 12 9 5 1 2 2 0 3 3 2 4 7 7 9 9 9 10 7 1 7 7 5 4 5 5 2 2 2 2 4 6 6 5 3 3 4 4 5 6 5 5 6 5 5 6 6 5 3 5 4 3 2 1 1 3 3 3 3 1 1 1 1 4 5 2 5 6 6 8 7 6 5 5 4
17 17 14 13 13 14 13 14 16 16 15 14 14 13 8 4 1 3 2 1 3 3 2 2 3 7 8 8 7 6 6 3 4 4 2 2 3 2 0 2 4 5 6 5 3 3 2 1 2 2 3 2 1 2 3 3 4 3 4 4 4 5 4 4 2 1 2 5 4 4 3 1 3 4 6 5 4 3 3 5 3 6 6 5 4 4 2
15 15 13 11 11 13 12 12 14 16 16 14 14 11 6 5 3 3 4 2 1 2 2 1 4 6 5 6 7 4 2 1 1 3 4 4 3 2 2 2 4 6 5 4 2 3 3 1 1 1 2 3 2 2 2 2 3 5 5 6 9 8 4 5 4 1 2 5 4 2 1 3 4 7 9 8 6 4 1 5 3 5 5 5 4 4 1
13 13 11 9 10 11 12 11 13 15 15 15 15 11 4 5 7 6 2 1 1 3 4 4 5 4 2 4 7 3 1 1 1 3 2 0 2 3 3 4 5 4 4 3 2 3 3 1 0 1 2 3 2 1 1 1 2 5 7 7 9 7 4 4 4 1 2 4 3 1 1 3 5 7 10 10 7 0 5 4 3 5 4 4 4 4 1
13 12 10 8 8 10 10 10 12 14 14 15 15 13 6 3 7 6 2 1 2 4 3 5 6 2 2 4 5 4 2 2 1 2 1 0 1 2 1 2 4 4 2 3 2 2 2 1 1 3 2 3 2 3 0 1 1 3 3 4 5 5 3 3 4 2 2 4 3 0 1 3 5 7 9 10 6 5 6 3 5 2 2 4 4 5 3
12 11 10 7 7 9 9 9 11 12 13 14 14 13 6 2 6 6 2 1 2 4 5 8 5 4 5 5 4 4 4 3 1 4 3 1 1 1 1 2 2 2 3 3 2 1 1 2 2 3 2 3 1 2 1 1 0 1 2 4 3 2 3 2 2 2 3 3 3 1 2 4 5 7 8 5 3 3 3 4 3 3 3 4 5 5 4
11 10 9 7 6 7 8 9 10 11 12 13 14 13 7 3 6 7 3 1 2 5 8 6 4 6 6 5 4 4 5 4 2 5 4 2 1 2 4 3 2 2 3 3 2 1 0 2 3 1 3 1 1 2 2 1 2 0 2 2 1 1 1 2 1 1 2 3 3 2 1 5 8 7 4 3 3 5 5 1 3 4 4 5 5 4 3
10 9 8 7 6 6 8 9 9 10 12 12 13 13 7 3 3 7 6 2 1 2 5 5 6 11 14 13 12 11 9 5 2 4 4 2 1 4 3 3 3 1 1 1 1 1 0 1 3 1 2 0 1 2 2 1 3 2 3 4 1 1 2 1 1 0 2 2 1 2 4 5 6 4 2 1 1 4 5 4 4 3 3 4 4 4 3
9 8 8 7 7 7 8 9 10 11 11 11 11 11 7 6 4 9 10 5 5 6 11 17 20 24 28 28 24 20 19 10 5 8 5 2 2 2 4 3 1 1 2 3 3 0 1 1 1 1 1 1 2 2 2 3 1 4 3 4 1 1 3 4 2 1 3 4 3 4 3 2 5 4 3 3 4 3 5 6 5 3 2 3 4 4 4
9 8 8 7 7 7 8 9 11 11 10 11 11 9 9 11 10 11 10 6 6 8 15 21 21 20 23 22 15 9 10 6 8 10 9 6 2 1 2 2 1 0 1 3 4 3 1 1 1 2 1 1 2 3 3 3 2 1 3 3 1 2 3 4 3 3 3 3 2 3 3 4 5 5 5 5 6 4 4 6 5 3 3 3 4 5 4
9 8 8 7 7 7 8 9 11 11 10 11 10 10 12 13 10 12 9 3 1 3 8 9 6 7 10 13 12 9 4 4 5 5 7 8 3 1 1 1 1 2 1 2 2 3 2 1 1 2 2 1 2 3 2 2 2 2 2 2 0 1 2 4 4 4 4 3 1 3 4 4 4 6 6 7 7 6 5 5 3 4 4 4 4 4 4
9 8 8 7 7 8 9 10 10 11 11 11 10 11 13 10 4 7 7 4 0 1 3 3 5 8 11 14 15 16 10 4 3 4 4 4 5 5 3 0 3 4 2 3 1 4 3 0 1 2 1 1 2 2 2 2 3 3 3 2 2 1 3 4 4 3 3 3 4 4 5 4 4 5 5 5 7 7 6 5 4 4 5 5 4 4 4
9 9 8 7 7 8 10 10 11 11 11 12 11 11 13 11 8 6 6 5 2 2 1 3 6 10 16 15 13 14 9 7 6 5 6 6 9 13 10 4 4 4 2 2 3 4 3 1 1 2 1 0 2 3 2 3 2 3 3 3 3 2 4 3 4 5 5 3 4 6 6 5 5 5 4 4 5 6 7 7 6 6 6 6 6 6 6
9 8 8 7 7 9 10 11 11 11 11 12 13 13 13 14 13 10 8 5 2 1 1 2 4 11 17 14 14 15 6 9 7 4 7 9 12 14 11 7 5 3 4 4 2 2 3 2 1 2 2 0 1 2 2 2 3 4 2 2 0 4 4 3 5 6 3 4 5 6 6 3 1 2 4 4 4 6 8 8 8 7 5 5 6 7 7
7 7 8 8 8 9 10 11 11 11 12 12 13 15 15 15 14 11 10 8 4 2 2 2 4 10 13 11 14 16 5 5 4 5 9 10 12 14 11 8 4 2 3 3 1 2 3 1 0 1 1 1 2 2 1 2 3 3 1 3 0 4 5 6 7 5 5 7 8 6 6 5 5 4 5 4 4 7 8 7 7 7 6 6 5 5 5
7 8 8 9 9 9 10 11 10 10 10 11 13 13 11 10 10 11 12 9 6 4 3 2 3 5 6 8 14 14 8 2 2 6 13 14 13 14 11 7 3 2 2 3 2 2 1 1 1 1 0 2 3 1 2 3 3 0 3 4 1 2 5 8 9 5 3 5 7 6 7 6 6 5 5 5 5 7 7 6 6 6 8 9 8 6 6
7 8 9 10 10 10 10 9 9 9 9 9 10 7 3 2 2 5 8 7 8 7 2 2 2 3 4 7 10 9 10 8 1 9 16 15 11 9 9 7 3 2 2 2 2 2 2 0 1 1 2 2 4 2 1 3 2 2 4 2 2 4 3 5 7 6 5 5 6 7 8 7 5 5 5 5 7 8 6 5 7 8 10 13 11 9 11
8 9 10 11 10 10 9 9 8 8 7 6 4 1 1 1 3 10 10 5 4 6 2 1 3 3 4 4 5 4 9 10 0 10 15 12 8 7 10 9 3 3 3 2 1 1 2 1 1 1 3 2 4 3 2 4 2 3 4 1 3 5 5 4 4 6 8 8 7 7 8 7 7 6 4 4 7 8 6 5 9 12 13 14 13 12 14
9 11 11 11 9 9 9 9 8 8 8 8 9 9 6 2 8 14 8 2 1 3 2 1 2 2 2 4 4 3 6 7 2 5 7 5 4 5 8 7 3 1 3 2 1 1 0 1 2 1 1 1 3 3 3 4 4 5 5 4 4 4 5 5 5 6 8 9 10 9 6 5 5 6 5 6 8 9 7 6 10 14 15 14 14 14 14
10 11 11 10 9 9 9 8 8 9 10 12 17 20 17 9 10 11 4 4 4 4 2 1 1 2 2 3 4 3 2 3 3 3 3 3 2 3 3 3 3 3 3 2 1 0 1 1 3 1 2 1 3 3 2 2 4 6 6 6 5 5 5 6 6 7 7 7 8 8 8 7 6 8 9 9 9 10 11 11 12 14 13 11 10 10 11
11 11 10 9 9 9 9 7 7 9 10 11 16 19 15 10 10 9 7 6 4 4 3 1 1 2 2 2 3 2 2 3 2 2 2 2 1 3 2 2 3 3 2 1 1 1 2 1 3 1 2 2 3 3 1 2 3 6 7 5 5 6 6 6 6 6 5 5 5 6 8 9 8 9 9 8 8 10 13 14 14 11 8 6 6 7 9
11 9 8 8 8 8 8 7 7 7 6 8 12 12 9 9 9 9 10 9 4 1 1 2 1 1 1 2 3 4 2 2 1 2 1 1 1 3 3 2 3 1 1 0 1 1 1 0 2 1 1 0 2 1 3 4 6 7 7 6 6 6 6 5 4 4 4 5 6 6 8 10 9 8 7 6 6 8 9 10 11 10 7 5 5 7 9
10 8 7 7 7 6 6 5 6 6 6 8 8 4 2 4 8 9 12 11 5 1 1 1 1 2 2 1 2 4 3 2 1 0 2 1 1 2 3 3 1 2 1 1 1 1 2 1 2 1 1 1 2 4 6 8 9 8 8 7 7 7 7 7 7 6 6 7 9 8 8 9 9 7 6 5 6 7 7 7 8 8 7 5 5 6 8
7 6 6 5 5 5 5 5 8 9 9 7 3 2 4 5 6 5 7 8 6 4 2 1 1 3 2 2 2 3 2 1 0 2 2 1 1 0 2 3 1 2 1 2 1 3 2 0 2 2 2 3 4 5 6 9 10 10 9 8 7 7 7 7 9 9 8 8 9 7 7 7 7 6 6 6 6 7 7 7 7 8 7 6 5 6 6
5 5 4 4 3 2 3 4 6 7 6 5 3 2 3 4 4 3 2 3 3 3 2 1 2 3 1 1 2 2 2 2 1 2 1 1 1 1 1 1 2 1 1 2 4 3 1 2 1 2 3 4 3 5 8 10 10 9 9 9 8 7 8 8 10 11 9 7 7 7 6 7 7 6 6 7 7 7 8 8 9 11 11 9 8 7 7
4 3 4 4 3 3 3 6 10 4 6 7 2 1 2 1 1 1 1 1 2 2 2 2 3 3 2 2 3 3 2 2 2 2 1 1 0 0 0 0 0 1 1 2 3 1 1 1 1 1 3 4 3 4 7 9 8 7 8 8 8 9 10 9 10 12 12 9 9 9 8 9 9 7 6 6 6 7 9 10 11 12 13 12 10 9 8
4 4 3 2 2 6 10 11 6 3 6 3 1 1 1 1 1 2 2 2 2 2 2 3 3 3 4 4 3 3 1 2 3 3 2 1 1 1 1 0 1 1 1 2 3 1 2 1 1 1 3 5 5 5 6 8 8 7 7 7 8 12 13 11 11 14 14 11 10 12 13 12 12 10 8 8 7 6 7 9 11 13 13 12 11 10 8
3 3 3 3 6 12 15 9 1 5 3 0 1 1 1 1 2 1 2 3 2 2 2 3 3 3 4 5 4 3 2 1 2 3 2 1 0 2 2 1 0 2 1 3 2 2 2 1 2 2 4 6 5 5 6 7 7 6 7 8 9 13 15 12 12 15 15 10 8 11 15 16 15 13 14 14 11 9 9 11 13 14 14 12 10 9 7
6 5 7 10 11 11 9 4 2 3 1 0 1 1 1 2 3 1 1 3 2 2 3 3 4 4 5 5 4 3 2 1 1 2 2 1 1 2 2 1 1 1 2 3 1 3 2 1 2 3 6 6 5 6 7 7 7 7 8 9 11 14 15 11 10 13 15 13 10 10 14 16 15 14 16 17 15 13 14 14 14 14 13 12 10 8 6
9 8 8 9 7 3 1 1 1 1 1 1 1 1 1 2 2 1 2 2 2 2 3 3 3 3 4 5 3 1 1 3 2 2 2 1 1 1 2 1 1 1 3 1 2 2 2 2 3 5 6 5 6 8 8 8 8 8 8 9 13 17 17 14 11 12 15 16 16 15 16 17 16 16 19 20 18 15 14 14 14 14 13 11 9 8 6
8 6 4 3 2 1 0 1 1 1 1 1 1 2 2 2 2 3 3 2 2 3 4 4 4 4 4 4 2 1 1 2 1 2 1 1 1 2 1 1 2 3 1 0 1 2 3 3 4 5 4 4 6 7 8 8 8 8 7 8 13 17 16 14 13 12 11 14 18 19 19 19 18 18 19 18 17 15 15 14 14 12 11 9 8 6 4
4 3 1 1 1 1 1 0 1 2 2 2 2 3 3 3 3 4 4 3 3 4 4 4 5 5 4 3 2 1 1 1 1 1 1 1 1 1 2 2 2 1 1 0 1 2 2 3 4 3 5 7 7 7 8 8 8 9 8 7 9 11 11 10 10 10 10 13 17 19 18 18 18 18 16 16 16 16 16 14 13 11 9 8 6 3 1
2 2 2 2 1 1 1 1 1 1 2 2 3 4 4 4 4 4 4 3 3 4 5 5 5 5 4 3 2 1 2 2 1 1 2 3 1 2 2 1 1 1 1 2 2 3 4 5 5 4 6 8 7 7 7 7 7 8 9 8 8 9 10 11 11 11 12 15 17 18 17 18 18 17 17 17 16 16 15 13 12 10 8 7 5 3 2
2 2 1 1 1 1 2 2 3 3 3 3 4 4 5 4 4 4 3 3 3 3 4 4 3 3 4 3 2 2 2 2 1 1 1 2 1 2 0 1 1 1 2 3 4 4 4 5 4 4 5 6 7 7 7 7 7 8 9 9 8 9 10 11 11 12 15 17 17 16 16 17 18 18 17 16 16 15 13 12 10 9 8 8 7 6 5
2 1 1 1 1 2 3 3 2 3 3 3 4 4 4 4 5 5 4 3 3 3 4 4 3 3 2 1 3 2 2 2 1 1 1 2 1 0 1 1 2 2 2 3 4 4 4 5 4 5 6 7 8 8 8 8 9 10 10 9 9 9 10 10 11 14 18 18 17 16 16 17 18 18 18 17 15 13 12 11 10 11 11 10 8 6 4
2 1 1 1 1 2 3 4 3 4 4 4 4 5 4 4 6 7 5 3 3 4 4 4 4 4 3 2 2 2 1 1 1 1 1 2 2 1 1 2 3 3 3 3 4 4 4 4 5 6 7 8 8 9 8 8 9 9 9 10 11 11 12 13 14 17 20 19 18 17 18 18 19 19 18 16 14 12 12 12 13 12 10 8 6 5 3
2 1 1 1 1 2 1 1 2 3 4 3 3 4 4 5 6 5 3 3 2 1 1 1 2 2 2 1 2 2 2 2 2 2 2 2 2 2 2 3 4 4 4 4 5 5 4 4 6 7 8 8 9 8 8 8 8 8 10 12 13 14 15 16 18 19 19 19 20 20 19 19 19 19 17 16 15 14 13 12 10 8 7 6 5 5 4
1 2 2 2 2 2 2 0 2 3 4 4 4 4 3 3 4 4 2 2 2 3 3 1 1 2 3 2 2 2 2 1 2 3 3 3 2 3 3 4 5 5 4 4 4 4 4 5 6 6 7 7 7 7 7 8 8 9 11 14 15 15 16 18 19 19 19 20 21 21 20 19 19 18 17 17 17 15 12 10 8 7 6 6 5 5 4
1 2 2 2 2 3 4 3 2 3 4 4 4 3 1 2 3 4 2 2 4 3 1 0 1 3 2 2 2 2 1 1 1 3 3 2 1 3 4 5 5 5 4 3 3 3 4 5 6 7 8 8 8 8 8 8 8 10 13 15 16 16 17 18 19 20 20 19 20 21 20 19 19 18 17 17 15 13 11 10 9 7 6 6 6 5 4
Wind_Direction
358 357 358 0 1 1 0 2 3 2 360 360 0 356 348 101 286 277 311 330 173 144 356 275 232 249 244 245 252 258 267 260 66 30 19 24 13 8 22 30 37 29 275 343 20 64 120 197 163 175 195 203 221 250 334 341 125 82 69 272 296 313 26 18 317 299 303 299 320 48 117 174 120 224 224 149 160 177 161 180 169 129 157 144 81 343 263
357 356 356 358 360 360 360 1 4 4 1 357 355 356 342 286 272 278 321 335 291 205 237 255 265 263 262 270 268 273 289 257 81 44 24 29 32 15 359 18 82 235 279 316 314 77 78 250 257 203 186 220 237 247 360 358 26 62 175 214 355 347 11 38 14 349 350 345 352 7 2 10 37 283 290 220 199 186 154 97 84 116 197 161 124 223 252
357 355 354 357 359 359 359 359 3 4 358 352 352 345 288 313 263 255 312 327 302 201 194 184 223 266 290 281 284 323 320 277 95 85 34 274 128 95 319 333 4 320 359 9 359 47 65 284 322 9 4 299 300 20 16 0 35 187 197 137 79 17 169 100 91 70 33 356 339 314 309 328 315 315 349 333 254 196 159 94 92 135 216 158 146 197 237
357 355 353 356 358 358 358 357 1 3 355 348 347 251 288 1 339 292 312 332 6 254 277 72 227 275 281 275 290 332 293 292 19 86 72 293 86 82 299 349 16 356 16 30 15 18 34 38 26 13 359 328 311 4 12 8 9 355 9 80 89 69 358 116 141 145 165 207 231 245 255 315 337 4 36 22 346 126 124 122 150 168 161 170 230 191 152
355 355 353 354 356 357 357 356 359 2 355 348 353 167 80 34 323 341 348 331 351 356 346 15 358 297 270 258 281 295 284 290 342 1 7 127 75 37 314 342 9 350 38 55 17 356 16 30 22 358 351 326 308 350 15 20 8 3 14 52 81 74 342 333 139 119 227 243 262 301 340 36 22 32 50 32 15 53 88 126 190 168 142 179 315 43 95
352 354 352 352 355 357 357 356 359 3 358 354 14 71 270 355 312 352 46 289 310 349 321 321 323 302 274 242 254 316 317 309 209 303 296 114 73 46 333 344 33 105 90 89 27 356 18 16 344 329 344 336 341 357 355 352 7 18 24 26 83 108 353 330 360 19 3 4 28 44 62 73 49 44 56 46 30 38 55 65 97 99 111 128 61 61 58
348 352 352 351 353 357 358 357 359 4 4 13 44 32 321 1 336 323 7 310 238 261 283 292 308 300 270 240 153 82 326 322 314 101 81 60 41 83 60 345 36 90 85 104 102 21 71 5 312 299 345 333 4 18 335 319 5 33 35 4 71 113 359 338 17 38 15 14 40 61 69 67 52 36 48 59 46 35 39 51 69 80 85 84 76 69 55
345 348 351 351 352 358 360 358 0 6 11 31 64 48 27 17 316 324 348 314 265 258 280 299 305 302 299 309 299 212 72 354 359 63 96 92 26 57 61 337 14 66 68 74 62 203 168 173 288 282 15 341 340 53 296 281 336 21 44 359 19 73 1 345 34 55 18 359 43 72 71 70 61 34 27 54 55 37 28 34 50 70 78 71 67 68 56
342 344 349 351 352 357 0 1 3 7 14 30 54 41 17 325 290 311 326 284 290 294 299 314 308 308 332 302 270 297 15 140 113 48 46 115 101 53 28 18 18 39 54 49 9 304 171 207 292 282 313 295 248 229 247 245 335 3 29 359 9 42 15 11 46 55 4 344 358 82 80 69 55 29 10 30 55 51 36 32 29 44 77 68 59 62 44
339 340 345 350 351 355 1 5 4 5 16 30 35 2 1 347 313 320 316 254 299 324 310 321 332 319 311 295 287 310 307 296 113 86 335 50 99 59 21 69 66 40 39 24 317 305 339 292 268 244 254 272 268 271 286 334 70 257 7 36 36 69 71 57 64 60 335 355 345 7 78 56 36 3 340 358 54 67 51 37 30 28 53 67 61 64 22
335 336 341 348 351 353 359 5 7 6 13 24 18 325 349 359 329 323 17 262 295 328 333 330 358 359 319 322 331 329 343 54 96 126 47 12 61 53 50 85 95 73 18 290 263 327 6 311 299 329 333 331 334 320 321 350 355 226 145 94 22 62 89 102 106 134 294 1 29 46 58 48 318 295 325 344 49 69 60 41 33 34 49 71 80 82 61
329 330 336 346 349 350 357 4 6 5 6 9 359 312 335 354 327 302 52 100 283 321 19 313 308 315 314 325 341 333 342 111 125 133 115 66 40 55 68 84 87 120 259 286 344 24 16 353 352 350 341 336 340 1 18 12 358 357 54 114 101 56 67 92 116 126 219 34 51 53 61 113 190 179 327 312 45 75 69 47 33 36 49 67 76 80 84
324 324 329 342 346 347 354 359 1 1 357 355 348 329 339 358 338 274 52 140 273 305 1 305 296 312 323 334 349 334 314 148 122 100 100 92 48 44 52 78 87 227 262 39 41 40 20 0 1 339 330 343 353 7 12 5 7 10 7 64 111 97 82 83 80 89 87 50 58 89 134 161 172 161 181 267 308 60 66 44 23 19 28 47 68 75 86
318 319 324 337 343 345 349 353 356 355 348 345 341 333 340 360 326 276 334 346 266 288 336 310 307 331 339 338 346 333 315 72 88 82 98 104 77 59 61 123 115 67 72 65 45 45 47 11 10 347 338 3 9 348 336 342 16 23 346 331 78 109 101 69 39 5 79 83 73 92 100 22 330 194 258 317 322 346 91 75 15 359 15 31 56 69 72
314 315 318 332 340 341 343 347 351 350 345 340 334 332 345 6 267 255 280 299 294 287 223 206 309 333 336 329 330 327 321 357 55 67 56 59 82 75 142 134 101 66 72 80 55 49 68 56 45 4 325 3 20 300 316 339 347 355 338 344 51 90 113 118 108 2 67 92 88 68 51 318 269 279 297 313 310 281 117 93 13 338 3 22 54 73 70
311 310 313 328 335 334 338 343 346 347 344 337 333 338 14 52 27 296 267 267 287 265 235 241 322 319 313 311 323 345 359 337 38 62 22 9 45 43 333 17 67 66 69 71 69 78 69 57 123 158 230 210 184 261 311 355 322 319 343 22 37 40 62 101 99 39 55 92 112 119 142 229 261 296 305 309 295 265 106 68 4 314 344 14 57 71 26
307 305 307 321 328 327 335 341 341 345 343 337 334 333 353 58 28 356 298 243 265 261 275 341 345 334 359 340 326 340 89 270 54 93 97 295 71 55 4 351 17 48 81 72 28 52 70 36 54 93 246 232 143 131 298 25 5 322 336 11 28 25 23 51 57 52 111 106 118 148 169 233 274 298 301 301 301 328 94 68 290 283 337 15 62 74 32
301 299 299 309 318 321 331 337 337 342 341 334 327 317 303 38 24 359 303 239 285 256 278 9 9 329 350 341 302 284 300 314 40 86 90 311 77 85 86 20 6 8 59 87 63 60 76 261 218 129 215 278 81 113 235 43 83 293 331 27 28 13 10 47 64 64 87 101 111 114 231 241 277 295 290 295 327 59 96 178 233 241 26 37 64 73 72
297 294 291 294 306 315 326 333 335 339 338 334 327 315 307 48 38 11 335 250 250 251 294 348 347 275 299 325 292 283 312 319 100 102 76 22 253 202 79 50 20 1 23 64 85 92 94 277 256 129 130 308 347 120 121 62 207 276 32 50 32 2 355 15 55 51 46 89 101 44 286 267 296 301 291 309 32 99 170 210 199 133 92 76 70 70 86
297 291 283 280 291 307 320 325 329 334 333 332 330 323 316 104 76 39 21 261 286 285 287 299 275 265 302 319 284 296 325 332 60 107 126 175 248 51 45 6 321 14 34 52 52 357 142 266 286 84 111 264 290 111 101 4 325 261 101 77 57 123 90 357 359 58 56 60 61 65 228 279 313 323 322 9 72 175 193 141 84 103 107 90 77 79 95
292 284 279 280 283 298 314 315 320 328 326 326 329 326 315 162 96 17 355 311 207 266 288 299 294 294 296 283 269 272 272 254 141 125 152 173 60 85 122 213 228 107 90 108 90 317 288 264 290 13 103 242 33 99 132 55 345 323 117 107 77 118 138 162 250 140 98 93 87 169 209 270 322 3 85 62 90 172 155 108 86 92 100 96 93 97 101
282 276 278 283 284 291 305 308 313 319 318 318 324 322 296 251 284 348 342 298 221 232 274 290 295 295 291 285 281 274 261 242 130 110 119 86 28 103 139 171 201 184 176 126 97 355 312 331 317 54 69 34 59 84 121 113 47 308 9 66 26 259 154 145 134 79 123 145 175 188 196 299 357 39 79 70 60 83 106 109 108 104 119 130 115 106 104
276 272 273 276 282 291 299 304 310 311 310 314 319 316 295 282 304 344 338 283 245 259 273 282 291 293 287 286 291 272 235 191 101 96 103 90 27 345 108 126 212 312 80 116 137 162 171 182 176 112 99 163 98 77 55 73 134 254 21 56 143 179 124 110 94 83 87 83 92 122 99 49 35 43 52 58 56 54 77 94 103 117 130 130 120 120 124
274 272 272 272 280 291 294 299 306 307 305 309 309 304 297 295 320 350 342 281 231 305 287 279 278 272 276 292 313 314 254 149 96 84 98 96 88 8 348 278 162 69 355 249 184 134 122 192 191 98 110 169 118 108 93 78 124 153 97 68 203 211 96 92 105 115 98 84 121 123 95 73 57 51 47 50 49 46 61 83 104 124 117 114 128 135 129
273 273 273 272 279 290 291 294 302 303 301 302 301 301 298 291 315 356 334 302 310 6 325 308 261 271 301 316 319 313 293 227 132 107 119 108 111 136 158 216 84 101 182 228 90 73 82 356 35 88 123 162 121 130 149 146 157 155 135 152 219 198 94 102 112 101 85 123 163 129 87 69 63 64 61 55 53 50 54 64 76 88 87 91 107 116 112
273 273 273 270 274 282 284 289 296 297 297 297 294 296 295 283 272 283 292 295 280 197 262 293 273 304 331 337 329 320 289 207 164 137 150 132 118 133 143 121 68 63 90 113 77 90 122 117 75 117 163 174 135 145 157 160 151 105 117 185 200 110 94 118 119 92 76 99 130 110 82 51 41 61 68 62 64 66 62 60 61 60 61 71 81 85 92
272 272 272 269 273 280 283 289 295 296 296 294 290 290 288 277 267 262 255 256 256 215 255 258 269 317 331 326 315 317 284 176 152 136 158 148 135 139 133 109 87 45 38 44 28 68 96 55 20 169 190 247 110 126 137 146 117 90 90 265 287 94 109 134 121 118 144 181 171 144 122 110 131 119 97 77 73 75 68 63 61 56 53 64 74 75 81
271 274 277 276 277 282 285 289 294 296 296 295 292 291 282 265 255 253 249 245 239 246 288 260 278 312 320 309 310 321 319 169 157 139 142 141 142 143 126 97 92 70 59 75 35 43 83 82 288 213 204 83 65 52 48 64 65 70 317 286 239 137 162 160 140 152 193 193 183 161 132 144 188 170 122 98 84 77 71 70 70 66 63 67 73 76 77
270 275 278 280 283 286 286 288 291 294 296 300 304 300 286 265 252 247 244 239 232 246 299 304 275 297 312 301 306 323 342 324 256 127 117 114 124 130 115 95 100 118 115 117 104 100 151 190 178 198 207 123 118 62 28 64 70 80 259 275 290 155 170 161 152 151 157 169 175 156 127 141 176 163 131 116 98 89 84 81 82 76 71 70 68 68 73
274 277 279 284 287 290 290 289 288 288 292 304 313 308 295 324 284 216 204 210 223 232 263 344 278 284 313 296 291 317 345 337 328 111 101 101 111 110 95 89 87 78 81 72 82 131 172 307 40 328 322 78 111 118 106 107 119 251 262 285 37 68 101 140 148 140 133 154 165 138 123 133 144 129 121 114 102 99 96 97 99 93 83 80 76 66 66
288 286 287 287 285 288 293 290 286 286 284 291 306 263 159 46 134 155 149 144 209 219 222 314 271 280 308 284 258 310 338 328 255 115 98 94 102 90 83 83 57 26 72 62 6 105 148 126 90 357 329 35 93 120 129 114 125 244 249 204 100 98 102 105 109 117 129 136 125 108 111 125 123 110 109 124 121 116 116 116 111 102 92 88 88 82 75
290 288 290 289 285 288 292 286 283 280 264 252 248 245 248 212 158 158 149 60 308 217 214 305 284 282 299 284 275 305 333 327 338 106 83 72 84 72 69 77 71 51 91 92 25 25 125 155 123 117 311 40 81 91 104 116 159 206 199 158 130 117 116 118 111 111 125 130 121 110 114 137 144 138 150 167 155 135 123 120 112 103 96 90 88 86 81
283 284 287 289 290 288 284 282 282 274 266 265 262 257 254 235 185 176 191 317 296 255 239 204 274 269 256 284 306 322 7 2 10 51 37 15 65 83 57 47 52 43 36 47 101 228 292 96 105 109 294 349 78 90 102 172 198 192 168 149 142 125 114 117 115 116 132 142 138 139 154 172 171 152 145 151 152 135 121 116 110 100 92 86 81 78 76
284 285 286 289 295 291 282 277 273 268 271 278 270 257 241 216 197 198 215 242 262 280 279 173 164 276 286 347 331 320 74 75 53 60 34 329 21 99 93 14 21 30 6 14 90 356 333 50 110 134 291 340 74 89 299 259 188 161 149 147 141 120 105 99 98 107 130 139 128 137 149 149 141 132 129 131 135 128 119 115 112 103 87 76 78 78 78
288 286 283 286 290 289 283 271 257 260 269 262 256 252 233 212 215 218 216 213 198 64 265 217 187 251 321 22 316 297 3 81 121 134 136 275 354 80 109 67 26 358 251 271 66 38 307 184 130 142 270 319 84 139 218 192 165 154 149 150 146 130 119 120 122 121 125 122 116 123 133 132 130 134 140 139 131 123 117 113 115 115 108 99 91 85 84
287 286 287 284 276 279 287 265 229 228 238 234 242 280 314 218 218 216 212 212 211 211 243 223 155 192 171 136 259 293 350 47 153 48 62 64 350 27 87 91 83 254 261 53 65 245 251 207 118 94 256 199 191 223 200 168 163 169 168 168 170 156 144 150 150 135 113 111 118 126 133 136 139 144 146 142 127 118 115 111 108 108 109 112 108 95 89
282 286 286 278 269 269 261 231 222 230 235 229 222 71 91 121 133 153 188 209 227 233 204 104 237 222 181 155 234 284 329 328 209 38 48 129 171 30 71 95 155 244 353 29 230 223 236 72 104 132 217 221 215 216 188 164 168 178 174 175 179 161 144 147 143 128 116 117 125 131 134 138 144 148 140 131 120 116 122 127 124 121 125 133 133 119 104
272 278 264 254 274 260 207 230 277 269 226 180 131 129 154 135 103 110 162 186 211 214 177 147 246 244 167 134 227 237 223 223 85 71 115 193 128 41 49 110 158 168 34 285 240 199 109 34 90 161 235 262 249 212 188 176 178 181 172 172 176 161 151 153 145 134 133 141 150 156 151 146 155 165 153 138 131 131 139 145 139 134 137 143 141 129 115
247 258 248 241 249 241 252 321 334 312 184 169 167 239 195 147 117 172 191 168 175 195 185 187 223 225 178 185 256 257 199 137 81 83 162 209 110 119 171 239 213 112 101 265 253 174 109 317 265 187 251 276 268 223 198 183 180 183 174 169 167 158 157 161 156 151 157 171 177 175 168 160 163 168 158 142 140 147 154 153 145 140 142 145 140 128 119
225 242 249 226 227 267 294 323 348 149 166 169 224 214 153 130 164 185 188 181 179 195 198 197 214 217 180 174 226 263 237 125 138 164 166 167 188 155 116 143 223 110 114 248 251 149 126 189 191 179 244 253 239 217 196 180 179 183 173 161 159 161 161 163 165 163 164 170 173 170 169 167 162 156 154 153 152 157 160 152 143 140 139 136 131 126 119
213 234 256 286 292 295 306 322 113 170 189 222 171 181 146 174 213 209 168 174 194 219 194 169 178 220 205 174 183 230 243 163 153 144 127 139 159 90 100 195 235 85 155 240 238 113 108 159 190 208 237 237 217 189 174 171 173 172 162 155 156 158 157 159 164 163 161 163 164 163 168 172 168 158 159 161 158 153 149 139 133 134 133 128 125 124 118
215 251 288 304 304 301 306 317 158 187 232 121 156 249 241 189 205 224 176 178 198 216 194 171 176 202 201 180 176 200 209 184 134 87 93 173 235 99 127 176 66 72 223 234 166 100 112 201 226 245 250 235 195 162 158 165 168 164 161 158 155 155 156 156 160 163 167 170 165 153 159 168 168 160 157 154 145 138 139 135 130 130 130 127 126 124 115
241 268 291 300 297 289 285 248 205 204 163 126 144 220 231 208 208 204 194 201 201 190 193 195 190 188 185 182 187 201 158 156 147 88 99 167 191 82 104 130 123 194 224 205 98 121 186 203 219 239 242 219 181 165 164 165 161 159 161 158 155 157 158 153 148 154 163 165 156 142 140 146 147 145 146 144 135 131 133 134 134 134 132 128 127 124 118
260 271 277 270 251 210 109 304 264 207 190 189 167 171 195 222 211 194 204 229 219 197 194 185 168 174 186 180 158 123 153 151 112 78 113 156 119 101 134 209 220 219 228 74 112 188 210 217 230 237 221 191 182 174 165 158 153 152 158 158 155 155 154 147 141 142 146 146 143 137 133 133 133 135 140 141 140 136 132 131 134 137 134 130 127 123 119
252 235 194 191 273 257 113 130 243 215 209 214 192 179 192 205 201 200 217 227 208 195 195 177 161 171 195 193 150 152 179 129 87 116 151 123 93 146 195 218 219 185 142 217 226 225 233 245 252 234 193 185 185 175 163 159 155 151 151 155 156 154 150 145 144 146 146 143 141 139 138 138 138 138 139 143 146 146 141 138 140 140 137 135 137 136 185
241 209 159 140 198 218 163 157 207 210 207 206 197 193 202 214 213 213 227 237 210 185 187 184 169 169 188 195 172 166 144 103 107 187 150 107 130 216 214 193 166 129 143 212 228 227 229 239 243 221 193 183 174 163 158 154 151 149 151 157 164 163 156 153 154 156 156 151 147 145 145 145 144 143 143 144 147 149 147 148 151 152 150 149 150 142 138
250 235 146 124 175 217 211 203 207 209 209 208 203 203 212 231 242 240 244 256 246 206 190 183 166 169 184 173 144 153 146 109 124 207 136 105 159 247 271 104 182 192 174 196 221 233 236 238 231 204 182 166 152 151 153 150 152 158 159 160 165 166 161 158 157 157 156 152 148 147 149 149 147 146 146 145 148 151 153 155 163 169 165 157 148 136 124
246 213 168 173 197 203 202 210 235 253 244 232 230 227 223 234 257 262 258 258 256 231 206 184 157 164 196 168 123 142 158 112 110 219 182 120 132 295 26 133 222 228 186 191 211 225 235 232 207 178 165 157 153 156 159 159 164 167 165 164 170 170 165 160 158 158 157 154 150 149 151 151 150 150 150 149 151 157 162 165 168 167 161 157 156 152 143
264 245 200 202 232 237 216 207 223 255 259 248 247 250 240 232 246 254 249 237 247 246 226 195 161 161 196 195 115 127 179 176 151 194 192 130 134 190 188 184 215 238 237 220 217 221 226 215 180 158 158 163 165 165 167 168 170 171 171 172 173 170 165 161 159 159 158 157 154 154 154 153 152 152 153 151 152 157 162 163 161 160 161 165 170 172 177
245 232 222 226 279 308 298 176 188 261 293 292 265 254 246 237 246 254 235 198 215 273 346 43 99 123 156 134 94 106 219 222 151 143 171 179 176 187 196 201 214 224 227 228 228 224 210 180 158 157 166 170 168 167 170 170 170 173 175 173 170 166 164 162 160 158 158 158 156 155 154 154 153 154 154 152 149 150 152 156 157 159 164 166 164 171 195
233 239 238 219 217 263 296 263 196 249 288 296 277 264 256 244 255 266 237 162 132 67 44 7 357 67 75 88 120 155 202 209 122 140 183 204 177 164 189 216 220 218 224 242 246 223 184 159 151 157 164 168 169 171 170 167 167 169 169 167 165 163 163 162 160 159 159 158 156 154 153 155 157 156 154 151 148 146 150 159 166 166 166 169 173 186 204
217 239 263 253 222 226 246 250 235 243 263 265 256 249 235 234 259 269 266 112 104 100 105 259 34 73 96 167 191 163 130 110 143 165 190 218 201 177 189 210 221 219 218 222 216 183 165 163 164 166 167 171 173 170 162 160 164 166 165 165 164 161 160 160 160 158 156 154 153 150 149 150 151 148 145 146 148 152 161 174 183 186 184 180 180 189 207